iso_date,Year,Hour,Min,DOY,POS_DOY,Lat,Lon,BP,Ts,Ta,has_bp,has_ts,has_ta,BuoyID,Buoy_Type,Buoy_Owner,Logistics,Hemisphere
2020-09-05T18:00:00Z,2020,18,0,249.75,249.75,60.768,-50.351,-999.0,8.8,-999.0,no,yes,no,300234068342720,SVPGHI,AOML,MARIA_S._MERI,North
2020-09-05T19:02:03Z,2020,19,2,249.7931,249.7931,60.77,-50.367,-999.0,8.82,-999.0,no,yes,no,300234068342720,SVPGHI,AOML,MARIA_S._MERI,North
2020-09-05T19:59:57Z,2020,20,0,249.8333,249.8333,60.779,-50.388,-999.0,8.81,-999.0,no,yes,no,300234068342720,SVPGHI,AOML,MARIA_S._MERI,North
2020-09-05T21:00:00Z,2020,21,0,249.875,249.875,60.791,-50.41,-999.0,8.8,-999.0,no,yes,no,300234068342720,SVPGHI,AOML,MARIA_S._MERI,North
2020-09-05T22:59:57Z,2020,23,0,249.9583,249.9583,60.827,-50.442,-999.0,8.78,-999.0,no,yes,no,300234068342720,SVPGHI,AOML,MARIA_S._MERI,North
2020-09-06T00:00:00Z,2020,0,0,250.0,250.0,60.846,-50.447,-999.0,8.75,-999.0,no,yes,no,300234068342720,SVPGHI,AOML,MARIA_S._MERI,North
2020-09-06T01:02:03Z,2020,1,2,250.0431,250.0431,60.864,-50.442,-999.0,8.72,-999.0,no,yes,no,300234068342720,SVPGHI,AOML,MARIA_S._MERI,North
2020-09-06T02:03:59Z,2020,2,4,250.0861,250.0861,-90.0,-180.0,-999.0,8.72,-999.0,no,yes,no,300234068342720,SVPGHI,AOML,MARIA_S._MERI,North
2020-09-06T03:02:00Z,2020,3,2,250.1264,250.1264,60.885,-50.407,-999.0,8.7,-999.0,no,yes,no,300234068342720,SVPGHI,AOML,MARIA_S._MERI,North
2020-09-06T04:00:02Z,2020,4,0,250.1667,250.1667,60.887,-50.395,-999.0,8.69,-999.0,no,yes,no,300234068342720,SVPGHI,AOML,MARIA_S._MERI,North
2020-09-06T04:59:57Z,2020,5,0,250.2083,250.2083,60.885,-50.386,-999.0,8.67,-999.0,no,yes,no,300234068342720,SVPGHI,AOML,MARIA_S._MERI,North
2020-09-06T06:01:00Z,2020,6,1,250.2507,250.2507,60.881,-50.392,-999.0,8.67,-999.0,no,yes,no,300234068342720,SVPGHI,AOML,MARIA_S._MERI,North
2020-09-06T07:00:02Z,2020,7,0,250.2917,250.2917,60.88,-50.405,-999.0,8.67,-999.0,no,yes,no,300234068342720,SVPGHI,AOML,MARIA_S._MERI,North
2020-09-06T07:59:57Z,2020,8,0,250.3333,250.3333,60.883,-50.425,-999.0,8.52,-999.0,no,yes,no,300234068342720,SVPGHI,AOML,MARIA_S._MERI,North
2020-09-06T09:03:01Z,2020,9,3,250.3771,250.3771,60.893,-50.447,-999.0,8.57,-999.0,no,yes,no,300234068342720,SVPGHI,AOML,MARIA_S._MERI,North
2020-09-06T10:00:02Z,2020,10,0,250.4167,250.4167,60.905,-50.469,-999.0,8.49,-999.0,no,yes,no,300234068342720,SVPGHI,AOML,MARIA_S._MERI,North
2020-09-06T10:59:57Z,2020,11,0,250.4583,250.4583,60.921,-50.489,-999.0,8.38,-999.0,no,yes,no,300234068342720,SVPGHI,AOML,MARIA_S._MERI,North
2020-09-06T12:00:00Z,2020,12,0,250.5,250.5,60.943,-50.504,-999.0,8.29,-999.0,no,yes,no,300234068342720,SVPGHI,AOML,MARIA_S._MERI,North
2020-09-06T13:02:55Z,2020,13,3,250.5437,250.5437,60.962,-50.503,-999.0,8.16,-999.0,no,yes,no,300234068342720,SVPGHI,AOML,MARIA_S._MERI,North
2020-09-06T13:59:57Z,2020,14,0,250.5833,250.5833,60.973,-50.496,-999.0,8.13,-999.0,no,yes,no,300234068342720,SVPGHI,AOML,MARIA_S._MERI,North
2020-09-06T15:00:00Z,2020,15,0,250.625,250.625,60.979,-50.484,-999.0,8.17,-999.0,no,yes,no,300234068342720,SVPGHI,AOML,MARIA_S._MERI,North
2020-09-06T16:00:02Z,2020,16,0,250.6667,250.6667,60.981,-50.471,-999.0,8.23,-999.0,no,yes,no,300234068342720,SVPGHI,AOML,MARIA_S._MERI,North
2020-09-06T16:59:57Z,2020,17,0,250.7083,250.7083,60.977,-50.469,-999.0,8.27,-999.0,no,yes,no,300234068342720,SVPGHI,AOML,MARIA_S._MERI,North
2020-09-06T18:00:00Z,2020,18,0,250.75,250.75,60.974,-50.472,-999.0,8.44,-999.0,no,yes,no,300234068342720,SVPGHI,AOML,MARIA_S._MERI,North
2020-09-06T19:00:02Z,2020,19,0,250.7917,250.7917,60.973,-50.487,-999.0,8.53,-999.0,no,yes,no,300234068342720,SVPGHI,AOML,MARIA_S._MERI,North
2020-09-06T19:59:57Z,2020,20,0,250.8333,250.8333,60.978,-50.507,-999.0,8.56,-999.0,no,yes,no,300234068342720,SVPGHI,AOML,MARIA_S._MERI,North
2020-09-06T21:00:00Z,2020,21,0,250.875,250.875,60.987,-50.53,-999.0,8.56,-999.0,no,yes,no,300234068342720,SVPGHI,AOML,MARIA_S._MERI,North
2020-09-06T22:00:02Z,2020,22,0,250.9167,250.9167,60.999,-50.554,-999.0,8.59,-999.0,no,yes,no,300234068342720,SVPGHI,AOML,MARIA_S._MERI,North
2020-09-06T22:59:57Z,2020,23,0,250.9583,250.9583,61.015,-50.574,-999.0,8.61,-999.0,no,yes,no,300234068342720,SVPGHI,AOML,MARIA_S._MERI,North
2020-09-07T00:02:00Z,2020,0,2,251.0014,251.0014,61.03,-50.588,-999.0,8.59,-999.0,no,yes,no,300234068342720,SVPGHI,AOML,MARIA_S._MERI,North
2020-09-07T01:00:02Z,2020,1,0,251.0417,251.0417,61.045,-50.595,-999.0,8.58,-999.0,no,yes,no,300234068342720,SVPGHI,AOML,MARIA_S._MERI,North
2020-09-07T01:59:57Z,2020,2,0,251.0833,251.0833,61.052,-50.598,-999.0,8.56,-999.0,no,yes,no,300234068342720,SVPGHI,AOML,MARIA_S._MERI,North
2020-09-07T03:00:00Z,2020,3,0,251.125,251.125,61.058,-50.604,-999.0,8.54,-999.0,no,yes,no,300234068342720,SVPGHI,AOML,MARIA_S._MERI,North
2020-09-07T04:00:02Z,2020,4,0,251.1667,251.1667,61.061,-50.61,-999.0,8.56,-999.0,no,yes,no,300234068342720,SVPGHI,AOML,MARIA_S._MERI,North
2020-09-07T04:59:57Z,2020,5,0,251.2083,251.2083,61.061,-50.619,-999.0,8.56,-999.0,no,yes,no,300234068342720,SVPGHI,AOML,MARIA_S._MERI,North
2020-09-07T06:00:00Z,2020,6,0,251.25,251.25,61.059,-50.632,-999.0,8.58,-999.0,no,yes,no,300234068342720,SVPGHI,AOML,MARIA_S._MERI,North
2020-09-07T07:59:57Z,2020,8,0,251.3333,251.3333,61.063,-50.672,-999.0,8.57,-999.0,no,yes,no,300234068342720,SVPGHI,AOML,MARIA_S._MERI,North
2020-09-07T09:00:00Z,2020,9,0,251.375,251.375,61.069,-50.701,-999.0,8.56,-999.0,no,yes,no,300234068342720,SVPGHI,AOML,MARIA_S._MERI,North
2020-09-07T10:01:03Z,2020,10,1,251.4174,251.4174,61.079,-50.733,-999.0,8.53,-999.0,no,yes,no,300234068342720,SVPGHI,AOML,MARIA_S._MERI,North
2020-09-07T10:59:57Z,2020,11,0,251.4583,251.4583,61.091,-50.759,-999.0,8.47,-999.0,no,yes,no,300234068342720,SVPGHI,AOML,MARIA_S._MERI,North
2020-09-07T12:02:00Z,2020,12,2,251.5014,251.5014,61.102,-50.785,-999.0,8.42,-999.0,no,yes,no,300234068342720,SVPGHI,AOML,MARIA_S._MERI,North
2020-09-07T13:00:02Z,2020,13,0,251.5417,251.5417,61.112,-50.803,-999.0,8.41,-999.0,no,yes,no,300234068342720,SVPGHI,AOML,MARIA_S._MERI,North
2020-09-07T13:59:57Z,2020,14,0,251.5833,251.5833,61.123,-50.819,-999.0,8.4,-999.0,no,yes,no,300234068342720,SVPGHI,AOML,MARIA_S._MERI,North
2020-09-07T15:00:00Z,2020,15,0,251.625,251.625,61.132,-50.832,-999.0,8.4,-999.0,no,yes,no,300234068342720,SVPGHI,AOML,MARIA_S._MERI,North
2020-09-07T16:00:02Z,2020,16,0,251.6667,251.6667,61.139,-50.843,-999.0,8.37,-999.0,no,yes,no,300234068342720,SVPGHI,AOML,MARIA_S._MERI,North
2020-09-07T16:59:57Z,2020,17,0,251.7083,251.7083,61.14,-50.86,-999.0,8.35,-999.0,no,yes,no,300234068342720,SVPGHI,AOML,MARIA_S._MERI,North
2020-09-07T18:00:00Z,2020,18,0,251.75,251.75,61.141,-50.876,-999.0,8.3,-999.0,no,yes,no,300234068342720,SVPGHI,AOML,MARIA_S._MERI,North
2020-09-07T19:00:02Z,2020,19,0,251.7917,251.7917,61.142,-50.905,-999.0,8.29,-999.0,no,yes,no,300234068342720,SVPGHI,AOML,MARIA_S._MERI,North
2020-09-07T19:59:57Z,2020,20,0,251.8333,251.8333,61.146,-50.941,-999.0,8.2,-999.0,no,yes,no,300234068342720,SVPGHI,AOML,MARIA_S._MERI,North
2020-09-07T21:00:00Z,2020,21,0,251.875,251.875,61.152,-50.981,-999.0,8.21,-999.0,no,yes,no,300234068342720,SVPGHI,AOML,MARIA_S._MERI,North
2020-09-07T22:00:02Z,2020,22,0,251.9167,251.9167,61.16,-51.02,-999.0,8.21,-999.0,no,yes,no,300234068342720,SVPGHI,AOML,MARIA_S._MERI,North
2020-09-07T22:59:57Z,2020,23,0,251.9583,251.9583,61.172,-51.057,-999.0,8.19,-999.0,no,yes,no,300234068342720,SVPGHI,AOML,MARIA_S._MERI,North
2020-09-08T00:03:01Z,2020,0,3,252.0021,252.0021,61.184,-51.097,-999.0,8.12,-999.0,no,yes,no,300234068342720,SVPGHI,AOML,MARIA_S._MERI,North
2020-09-08T01:00:02Z,2020,1,0,252.0417,252.0417,61.193,-51.131,-999.0,8.09,-999.0,no,yes,no,300234068342720,SVPGHI,AOML,MARIA_S._MERI,North
2020-09-08T01:59:57Z,2020,2,0,252.0833,252.0833,61.203,-51.163,-999.0,8.09,-999.0,no,yes,no,300234068342720,SVPGHI,AOML,MARIA_S._MERI,North
2020-09-08T03:00:00Z,2020,3,0,252.125,252.125,61.211,-51.193,-999.0,8.08,-999.0,no,yes,no,300234068342720,SVPGHI,AOML,MARIA_S._MERI,North
2020-09-08T04:00:02Z,2020,4,0,252.1667,252.1667,61.22,-51.219,-999.0,8.06,-999.0,no,yes,no,300234068342720,SVPGHI,AOML,MARIA_S._MERI,North
2020-09-08T04:59:57Z,2020,5,0,252.2083,252.2083,61.225,-51.242,-999.0,8.04,-999.0,no,yes,no,300234068342720,SVPGHI,AOML,MARIA_S._MERI,North
2020-09-08T06:00:00Z,2020,6,0,252.25,252.25,61.226,-51.264,-999.0,8.05,-999.0,no,yes,no,300234068342720,SVPGHI,AOML,MARIA_S._MERI,North
2020-09-08T07:00:02Z,2020,7,0,252.2917,252.2917,61.226,-51.293,-999.0,8.04,-999.0,no,yes,no,300234068342720,SVPGHI,AOML,MARIA_S._MERI,North
2020-09-08T07:59:57Z,2020,8,0,252.3333,252.3333,61.227,-51.33,-999.0,7.97,-999.0,no,yes,no,300234068342720,SVPGHI,AOML,MARIA_S._MERI,North
2020-09-08T09:00:00Z,2020,9,0,252.375,252.375,61.232,-51.369,-999.0,7.99,-999.0,no,yes,no,300234068342720,SVPGHI,AOML,MARIA_S._MERI,North
2020-09-08T10:00:02Z,2020,10,0,252.4167,252.4167,61.242,-51.403,-999.0,8.01,-999.0,no,yes,no,300234068342720,SVPGHI,AOML,MARIA_S._MERI,North
2020-09-08T10:59:57Z,2020,11,0,252.4583,252.4583,61.251,-51.442,-999.0,8.03,-999.0,no,yes,no,300234068342720,SVPGHI,AOML,MARIA_S._MERI,North
2020-09-08T12:01:00Z,2020,12,1,252.5007,252.5007,61.26,-51.48,-999.0,8.06,-999.0,no,yes,no,300234068342720,SVPGHI,AOML,MARIA_S._MERI,North
2020-09-08T13:00:02Z,2020,13,0,252.5417,252.5417,61.27,-51.508,-999.0,8.1,-999.0,no,yes,no,300234068342720,SVPGHI,AOML,MARIA_S._MERI,North
2020-09-08T14:00:57Z,2020,14,1,252.584,252.584,61.281,-51.54,-999.0,8.1,-999.0,no,yes,no,300234068342720,SVPGHI,AOML,MARIA_S._MERI,North
2020-09-08T15:00:00Z,2020,15,0,252.625,252.625,61.295,-51.564,-999.0,8.14,-999.0,no,yes,no,300234068342720,SVPGHI,AOML,MARIA_S._MERI,North
2020-09-08T16:02:55Z,2020,16,3,252.6687,252.6687,61.31,-51.59,-999.0,8.14,-999.0,no,yes,no,300234068342720,SVPGHI,AOML,MARIA_S._MERI,North
2020-09-08T17:00:57Z,2020,17,1,252.709,252.709,61.315,-51.621,-999.0,8.16,-999.0,no,yes,no,300234068342720,SVPGHI,AOML,MARIA_S._MERI,North
2020-09-08T18:01:00Z,2020,18,1,252.7507,252.7507,61.321,-51.642,-999.0,8.16,-999.0,no,yes,no,300234068342720,SVPGHI,AOML,MARIA_S._MERI,North
2020-09-08T19:00:02Z,2020,19,0,252.7917,252.7917,61.332,-51.666,-999.0,8.18,-999.0,no,yes,no,300234068342720,SVPGHI,AOML,MARIA_S._MERI,North
2020-09-08T20:00:57Z,2020,20,1,252.834,252.834,61.346,-51.7,-999.0,8.18,-999.0,no,yes,no,300234068342720,SVPGHI,AOML,MARIA_S._MERI,North
2020-09-08T21:01:00Z,2020,21,1,252.8757,252.8757,61.362,-51.736,-999.0,8.2,-999.0,no,yes,no,300234068342720,SVPGHI,AOML,MARIA_S._MERI,North
2020-09-08T22:01:03Z,2020,22,1,252.9174,252.9174,61.381,-51.773,-999.0,8.22,-999.0,no,yes,no,300234068342720,SVPGHI,AOML,MARIA_S._MERI,North
2020-09-08T22:59:57Z,2020,23,0,252.9583,252.9583,61.407,-51.803,-999.0,8.21,-999.0,no,yes,no,300234068342720,SVPGHI,AOML,MARIA_S._MERI,North
2020-09-09T00:00:00Z,2020,0,0,253.0,253.0,61.427,-51.828,-999.0,8.2,-999.0,no,yes,no,300234068342720,SVPGHI,AOML,MARIA_S._MERI,North
2020-09-09T01:03:56Z,2020,1,4,253.0444,253.0444,61.453,-51.855,-999.0,8.21,-999.0,no,yes,no,300234068342720,SVPGHI,AOML,MARIA_S._MERI,North
2020-09-09T02:00:57Z,2020,2,1,253.084,253.084,61.472,-51.867,-999.0,8.21,-999.0,no,yes,no,300234068342720,SVPGHI,AOML,MARIA_S._MERI,North
2020-09-09T03:03:01Z,2020,3,3,253.1271,253.1271,61.487,-51.88,-999.0,8.21,-999.0,no,yes,no,300234068342720,SVPGHI,AOML,MARIA_S._MERI,North
2020-09-09T04:00:02Z,2020,4,0,253.1667,253.1667,61.5,-51.891,-999.0,8.21,-999.0,no,yes,no,300234068342720,SVPGHI,AOML,MARIA_S._MERI,North
2020-09-09T04:59:57Z,2020,5,0,253.2083,253.2083,61.508,-51.907,-999.0,8.22,-999.0,no,yes,no,300234068342720,SVPGHI,AOML,MARIA_S._MERI,North
2020-09-09T06:00:00Z,2020,6,0,253.25,253.25,61.516,-51.926,-999.0,8.23,-999.0,no,yes,no,300234068342720,SVPGHI,AOML,MARIA_S._MERI,North
2020-09-09T07:00:02Z,2020,7,0,253.2917,253.2917,61.523,-51.952,-999.0,8.22,-999.0,no,yes,no,300234068342720,SVPGHI,AOML,MARIA_S._MERI,North
2020-09-09T08:00:57Z,2020,8,1,253.334,253.334,61.529,-51.981,-999.0,8.21,-999.0,no,yes,no,300234068342720,SVPGHI,AOML,MARIA_S._MERI,North
2020-09-09T09:01:00Z,2020,9,1,253.3757,253.3757,61.539,-52.018,-999.0,8.2,-999.0,no,yes,no,300234068342720,SVPGHI,AOML,MARIA_S._MERI,North
2020-09-09T10:00:02Z,2020,10,0,253.4167,253.4167,61.559,-52.052,-999.0,8.21,-999.0,no,yes,no,300234068342720,SVPGHI,AOML,MARIA_S._MERI,North
2020-09-09T10:59:57Z,2020,11,0,253.4583,253.4583,61.58,-52.084,-999.0,8.24,-999.0,no,yes,no,300234068342720,SVPGHI,AOML,MARIA_S._MERI,North
2020-09-09T12:00:00Z,2020,12,0,253.5,253.5,61.598,-52.114,-999.0,8.28,-999.0,no,yes,no,300234068342720,SVPGHI,AOML,MARIA_S._MERI,North
2020-09-09T13:00:02Z,2020,13,0,253.5417,253.5417,61.624,-52.122,-999.0,8.28,-999.0,no,yes,no,300234068342720,SVPGHI,AOML,MARIA_S._MERI,North
2020-09-09T14:01:58Z,2020,14,2,253.5847,253.5847,61.644,-52.135,-999.0,8.28,-999.0,no,yes,no,300234068342720,SVPGHI,AOML,MARIA_S._MERI,North
2020-09-09T15:00:00Z,2020,15,0,253.625,253.625,61.662,-52.14,-999.0,8.27,-999.0,no,yes,no,300234068342720,SVPGHI,AOML,MARIA_S._MERI,North
2020-09-09T16:03:56Z,2020,16,4,253.6694,253.6694,61.679,-52.141,-999.0,8.25,-999.0,no,yes,no,300234068342720,SVPGHI,AOML,MARIA_S._MERI,North
2020-09-09T17:02:58Z,2020,17,3,253.7104,253.7104,61.684,-52.142,-999.0,8.25,-999.0,no,yes,no,300234068342720,SVPGHI,AOML,MARIA_S._MERI,North
2020-09-09T18:01:00Z,2020,18,1,253.7507,253.7507,61.689,-52.15,-999.0,8.25,-999.0,no,yes,no,300234068342720,SVPGHI,AOML,MARIA_S._MERI,North
2020-09-09T19:00:02Z,2020,19,0,253.7917,253.7917,61.695,-52.158,-999.0,8.22,-999.0,no,yes,no,300234068342720,SVPGHI,AOML,MARIA_S._MERI,North
2020-09-09T19:59:57Z,2020,20,0,253.8333,253.8333,61.7,-52.172,-999.0,8.2,-999.0,no,yes,no,300234068342720,SVPGHI,AOML,MARIA_S._MERI,North
2020-09-09T21:01:00Z,2020,21,1,253.8757,253.8757,61.705,-52.191,-999.0,8.19,-999.0,no,yes,no,300234068342720,SVPGHI,AOML,MARIA_S._MERI,North
2020-09-09T22:03:56Z,2020,22,4,253.9194,253.9194,-90.0,-180.0,-999.0,8.18,-999.0,no,yes,no,300234068342720,SVPGHI,AOML,MARIA_S._MERI,North
2020-09-09T22:59:57Z,2020,23,0,253.9583,253.9583,61.721,-52.226,-999.0,8.16,-999.0,no,yes,no,300234068342720,SVPGHI,AOML,MARIA_S._MERI,North
2020-09-10T00:00:00Z,2020,0,0,254.0,254.0,61.732,-52.25,-999.0,8.16,-999.0,no,yes,no,300234068342720,SVPGHI,AOML,MARIA_S._MERI,North
2020-09-10T01:00:02Z,2020,1,0,254.0417,254.0417,61.747,-52.273,-999.0,8.15,-999.0,no,yes,no,300234068342720,SVPGHI,AOML,MARIA_S._MERI,North
2020-09-10T01:59:57Z,2020,2,0,254.0833,254.0833,61.762,-52.293,-999.0,8.14,-999.0,no,yes,no,300234068342720,SVPGHI,AOML,MARIA_S._MERI,North
2020-09-10T03:00:00Z,2020,3,0,254.125,254.125,61.78,-52.308,-999.0,8.13,-999.0,no,yes,no,300234068342720,SVPGHI,AOML,MARIA_S._MERI,North
2020-09-10T04:02:03Z,2020,4,2,254.1681,254.1681,61.798,-52.306,-999.0,8.13,-999.0,no,yes,no,300234068342720,SVPGHI,AOML,MARIA_S._MERI,North
2020-09-10T04:59:57Z,2020,5,0,254.2083,254.2083,61.81,-52.296,-999.0,8.13,-999.0,no,yes,no,300234068342720,SVPGHI,AOML,MARIA_S._MERI,North
2020-09-10T06:00:00Z,2020,6,0,254.25,254.25,61.817,-52.281,-999.0,8.12,-999.0,no,yes,no,300234068342720,SVPGHI,AOML,MARIA_S._MERI,North
2020-09-10T07:00:02Z,2020,7,0,254.2917,254.2917,61.821,-52.269,-999.0,8.12,-999.0,no,yes,no,300234068342720,SVPGHI,AOML,MARIA_S._MERI,North
2020-09-10T07:59:57Z,2020,8,0,254.3333,254.3333,61.822,-52.268,-999.0,8.1,-999.0,no,yes,no,300234068342720,SVPGHI,AOML,MARIA_S._MERI,North
2020-09-10T09:00:00Z,2020,9,0,254.375,254.375,61.824,-52.275,-999.0,8.09,-999.0,no,yes,no,300234068342720,SVPGHI,AOML,MARIA_S._MERI,North
2020-09-10T10:00:02Z,2020,10,0,254.4167,254.4167,61.831,-52.286,-999.0,8.1,-999.0,no,yes,no,300234068342720,SVPGHI,AOML,MARIA_S._MERI,North
2020-09-10T10:59:57Z,2020,11,0,254.4583,254.4583,61.841,-52.3,-999.0,8.1,-999.0,no,yes,no,300234068342720,SVPGHI,AOML,MARIA_S._MERI,North
2020-09-10T12:00:00Z,2020,12,0,254.5,254.5,61.845,-52.316,-999.0,8.1,-999.0,no,yes,no,300234068342720,SVPGHI,AOML,MARIA_S._MERI,North
2020-09-10T13:00:02Z,2020,13,0,254.5417,254.5417,61.865,-52.321,-999.0,8.12,-999.0,no,yes,no,300234068342720,SVPGHI,AOML,MARIA_S._MERI,North
2020-09-10T14:00:57Z,2020,14,1,254.584,254.584,61.875,-52.323,-999.0,8.11,-999.0,no,yes,no,300234068342720,SVPGHI,AOML,MARIA_S._MERI,North
2020-09-10T15:00:00Z,2020,15,0,254.625,254.625,61.881,-52.326,-999.0,8.13,-999.0,no,yes,no,300234068342720,SVPGHI,AOML,MARIA_S._MERI,North
2020-09-10T16:59:57Z,2020,17,0,254.7083,254.7083,61.891,-52.336,-999.0,8.13,-999.0,no,yes,no,300234068342720,SVPGHI,AOML,MARIA_S._MERI,North
2020-09-10T18:00:00Z,2020,18,0,254.75,254.75,61.895,-52.34,-999.0,8.14,-999.0,no,yes,no,300234068342720,SVPGHI,AOML,MARIA_S._MERI,North
2020-09-10T19:00:02Z,2020,19,0,254.7917,254.7917,61.905,-52.339,-999.0,8.14,-999.0,no,yes,no,300234068342720,SVPGHI,AOML,MARIA_S._MERI,North
2020-09-10T19:59:57Z,2020,20,0,254.8333,254.8333,61.91,-52.336,-999.0,8.13,-999.0,no,yes,no,300234068342720,SVPGHI,AOML,MARIA_S._MERI,North
2020-09-10T21:00:00Z,2020,21,0,254.875,254.875,61.915,-52.332,-999.0,8.13,-999.0,no,yes,no,300234068342720,SVPGHI,AOML,MARIA_S._MERI,North
2020-09-10T22:00:02Z,2020,22,0,254.9167,254.9167,61.921,-52.334,-999.0,8.12,-999.0,no,yes,no,300234068342720,SVPGHI,AOML,MARIA_S._MERI,North
2020-09-10T22:59:57Z,2020,23,0,254.9583,254.9583,61.927,-52.337,-999.0,8.11,-999.0,no,yes,no,300234068342720,SVPGHI,AOML,MARIA_S._MERI,North
2020-09-11T00:01:00Z,2020,0,1,255.0007,255.0007,61.931,-52.335,-999.0,8.11,-999.0,no,yes,no,300234068342720,SVPGHI,AOML,MARIA_S._MERI,North
2020-09-11T01:03:56Z,2020,1,4,255.0444,255.0444,61.935,-52.337,-999.0,8.12,-999.0,no,yes,no,300234068342720,SVPGHI,AOML,MARIA_S._MERI,North
2020-09-11T01:59:57Z,2020,2,0,255.0833,255.0833,61.94,-52.342,-999.0,8.1,-999.0,no,yes,no,300234068342720,SVPGHI,AOML,MARIA_S._MERI,North
2020-09-11T03:00:00Z,2020,3,0,255.125,255.125,61.946,-52.349,-999.0,8.09,-999.0,no,yes,no,300234068342720,SVPGHI,AOML,MARIA_S._MERI,North
2020-09-11T04:00:02Z,2020,4,0,255.1667,255.1667,61.952,-52.351,-999.0,8.11,-999.0,no,yes,no,300234068342720,SVPGHI,AOML,MARIA_S._MERI,North
2020-09-11T04:59:57Z,2020,5,0,255.2083,255.2083,61.956,-52.351,-999.0,8.12,-999.0,no,yes,no,300234068342720,SVPGHI,AOML,MARIA_S._MERI,North
2020-09-11T06:00:00Z,2020,6,0,255.25,255.25,61.957,-52.349,-999.0,8.12,-999.0,no,yes,no,300234068342720,SVPGHI,AOML,MARIA_S._MERI,North
2020-09-11T07:00:02Z,2020,7,0,255.2917,255.2917,61.957,-52.348,-999.0,8.16,-999.0,no,yes,no,300234068342720,SVPGHI,AOML,MARIA_S._MERI,North
2020-09-11T08:01:58Z,2020,8,2,255.3347,255.3347,61.957,-52.352,-999.0,8.18,-999.0,no,yes,no,300234068342720,SVPGHI,AOML,MARIA_S._MERI,North
2020-09-11T09:00:00Z,2020,9,0,255.375,255.375,61.957,-52.357,-999.0,8.22,-999.0,no,yes,no,300234068342720,SVPGHI,AOML,MARIA_S._MERI,North
2020-09-11T10:00:02Z,2020,10,0,255.4167,255.4167,61.961,-52.365,-999.0,8.23,-999.0,no,yes,no,300234068342720,SVPGHI,AOML,MARIA_S._MERI,North
2020-09-11T10:59:57Z,2020,11,0,255.4583,255.4583,61.966,-52.368,-999.0,8.28,-999.0,no,yes,no,300234068342720,SVPGHI,AOML,MARIA_S._MERI,North
2020-09-11T12:01:00Z,2020,12,1,255.5007,255.5007,61.971,-52.371,-999.0,8.31,-999.0,no,yes,no,300234068342720,SVPGHI,AOML,MARIA_S._MERI,North
2020-09-11T13:02:55Z,2020,13,3,255.5437,255.5437,61.977,-52.37,-999.0,8.37,-999.0,no,yes,no,300234068342720,SVPGHI,AOML,MARIA_S._MERI,North
2020-09-11T13:59:57Z,2020,14,0,255.5833,255.5833,61.981,-52.368,-999.0,8.39,-999.0,no,yes,no,300234068342720,SVPGHI,AOML,MARIA_S._MERI,North
2020-09-11T15:00:00Z,2020,15,0,255.625,255.625,61.983,-52.364,-999.0,8.44,-999.0,no,yes,no,300234068342720,SVPGHI,AOML,MARIA_S._MERI,North
2020-09-11T16:01:03Z,2020,16,1,255.6674,255.6674,61.984,-52.362,-999.0,8.48,-999.0,no,yes,no,300234068342720,SVPGHI,AOML,MARIA_S._MERI,North
2020-09-11T16:59:57Z,2020,17,0,255.7083,255.7083,61.984,-52.36,-999.0,8.48,-999.0,no,yes,no,300234068342720,SVPGHI,AOML,MARIA_S._MERI,North
2020-09-11T18:00:00Z,2020,18,0,255.75,255.75,61.983,-52.363,-999.0,8.5,-999.0,no,yes,no,300234068342720,SVPGHI,AOML,MARIA_S._MERI,North
2020-09-11T19:59:57Z,2020,20,0,255.8333,255.8333,61.992,-52.352,-999.0,8.26,-999.0,no,yes,no,300234068342720,SVPGHI,AOML,MARIA_S._MERI,North
2020-09-11T21:00:00Z,2020,21,0,255.875,255.875,61.995,-52.339,-999.0,8.2,-999.0,no,yes,no,300234068342720,SVPGHI,AOML,MARIA_S._MERI,North
2020-09-11T22:01:03Z,2020,22,1,255.9174,255.9174,61.998,-52.329,-999.0,8.14,-999.0,no,yes,no,300234068342720,SVPGHI,AOML,MARIA_S._MERI,North
2020-09-11T22:59:57Z,2020,23,0,255.9583,255.9583,62.0,-52.312,-999.0,8.12,-999.0,no,yes,no,300234068342720,SVPGHI,AOML,MARIA_S._MERI,North
2020-09-12T00:00:00Z,2020,0,0,256.0,256.0,62.002,-52.293,-999.0,7.65,-999.0,no,yes,no,300234068342720,SVPGHI,AOML,MARIA_S._MERI,North
2020-09-12T01:00:02Z,2020,1,0,256.0417,256.0417,62.004,-52.276,-999.0,7.5,-999.0,no,yes,no,300234068342720,SVPGHI,AOML,MARIA_S._MERI,North
2020-09-12T02:00:57Z,2020,2,1,256.084,256.084,62.006,-52.255,-999.0,7.53,-999.0,no,yes,no,300234068342720,SVPGHI,AOML,MARIA_S._MERI,North
2020-09-12T03:00:00Z,2020,3,0,256.125,256.125,62.006,-52.236,-999.0,7.57,-999.0,no,yes,no,300234068342720,SVPGHI,AOML,MARIA_S._MERI,North
2020-09-12T04:00:02Z,2020,4,0,256.1667,256.1667,62.004,-52.222,-999.0,7.64,-999.0,no,yes,no,300234068342720,SVPGHI,AOML,MARIA_S._MERI,North
2020-09-12T04:59:57Z,2020,5,0,256.2083,256.2083,62.002,-52.212,-999.0,7.87,-999.0,no,yes,no,300234068342720,SVPGHI,AOML,MARIA_S._MERI,North
2020-09-12T06:00:00Z,2020,6,0,256.25,256.25,62.002,-52.2,-999.0,7.89,-999.0,no,yes,no,300234068342720,SVPGHI,AOML,MARIA_S._MERI,North
2020-09-12T07:00:02Z,2020,7,0,256.2917,256.2917,62.002,-52.19,-999.0,7.85,-999.0,no,yes,no,300234068342720,SVPGHI,AOML,MARIA_S._MERI,North
2020-09-12T08:03:59Z,2020,8,4,256.3361,256.3361,62.008,-52.178,-999.0,7.81,-999.0,no,yes,no,300234068342720,SVPGHI,AOML,MARIA_S._MERI,North
2020-09-12T09:00:00Z,2020,9,0,256.375,256.375,62.007,-52.163,-999.0,7.76,-999.0,no,yes,no,300234068342720,SVPGHI,AOML,MARIA_S._MERI,North
2020-09-12T10:01:03Z,2020,10,1,256.4174,256.4174,62.01,-52.141,-999.0,7.72,-999.0,no,yes,no,300234068342720,SVPGHI,AOML,MARIA_S._MERI,North
2020-09-12T10:59:57Z,2020,11,0,256.4583,256.4583,62.008,-52.119,-999.0,7.56,-999.0,no,yes,no,300234068342720,SVPGHI,AOML,MARIA_S._MERI,North
2020-09-12T12:00:00Z,2020,12,0,256.5,256.5,62.004,-52.093,-999.0,7.55,-999.0,no,yes,no,300234068342720,SVPGHI,AOML,MARIA_S._MERI,North
2020-09-12T13:01:03Z,2020,13,1,256.5424,256.5424,61.997,-52.072,-999.0,7.62,-999.0,no,yes,no,300234068342720,SVPGHI,AOML,MARIA_S._MERI,North
2020-09-12T14:00:57Z,2020,14,1,256.584,256.584,61.994,-52.054,-999.0,7.65,-999.0,no,yes,no,300234068342720,SVPGHI,AOML,MARIA_S._MERI,North
2020-09-12T15:00:00Z,2020,15,0,256.625,256.625,61.989,-52.04,-999.0,7.66,-999.0,no,yes,no,300234068342720,SVPGHI,AOML,MARIA_S._MERI,North
2020-09-12T16:00:02Z,2020,16,0,256.6667,256.6667,61.985,-52.027,-999.0,7.68,-999.0,no,yes,no,300234068342720,SVPGHI,AOML,MARIA_S._MERI,North
2020-09-12T16:59:57Z,2020,17,0,256.7083,256.7083,61.98,-52.014,-999.0,7.66,-999.0,no,yes,no,300234068342720,SVPGHI,AOML,MARIA_S._MERI,North
2020-09-12T18:01:00Z,2020,18,1,256.7507,256.7507,61.972,-52.006,-999.0,7.57,-999.0,no,yes,no,300234068342720,SVPGHI,AOML,MARIA_S._MERI,North
2020-09-12T19:03:56Z,2020,19,4,256.7944,256.7944,61.976,-51.991,-999.0,7.55,-999.0,no,yes,no,300234068342720,SVPGHI,AOML,MARIA_S._MERI,North
2020-09-12T19:59:57Z,2020,20,0,256.8333,256.8333,61.972,-51.969,-999.0,7.5,-999.0,no,yes,no,300234068342720,SVPGHI,AOML,MARIA_S._MERI,North
2020-09-12T21:04:01Z,2020,21,4,256.8778,256.8778,61.965,-51.943,-999.0,7.43,-999.0,no,yes,no,300234068342720,SVPGHI,AOML,MARIA_S._MERI,North
2020-09-12T22:01:03Z,2020,22,1,256.9174,256.9174,61.957,-51.93,-999.0,7.39,-999.0,no,yes,no,300234068342720,SVPGHI,AOML,MARIA_S._MERI,North
2020-09-12T22:59:57Z,2020,23,0,256.9583,256.9583,61.947,-51.917,-999.0,7.4,-999.0,no,yes,no,300234068342720,SVPGHI,AOML,MARIA_S._MERI,North
2020-09-13T00:00:00Z,2020,0,0,257.0,257.0,61.937,-51.903,-999.0,7.37,-999.0,no,yes,no,300234068342720,SVPGHI,AOML,MARIA_S._MERI,North